KUIPER-00034

Last updated on Thu May 29 2025 00:02:05 GMT+0000 (Coordinated Universal Time)

1 63747U 25088Z 25148.48251801 .00014666 00000+0 41153-3 0 9998 2 63747 51.8725 315.2561 0001481 195.8718 164.2222 15.36790411 4946
UTC large
Height (km)
Speed (km/s)
/
Latitude / Longitude
Inclination (degrees)
Orbital Period (minutes)
Azimuth
Elevation
Range (km)
Doppler Factor

Next 0 passes for location: London (51.5072 / 0.1276)

Sorry there are no passes over London.